Location: ?????
(54.9266°N, 38.5527°E)
Time: 14:42:55
(UTC+00:00)

Cosmos 2333 Rocket - Pass Details

Date: 14 April 2024
Orbit: 840 x 862 km, 70.8° (Epoch: 18 May)

Event Time Altitude Azimuth Distance (km) Brightness Sun altitude
Exits shadow 00:04:52 27° 242° (WSW) 1,552 3.0 -17.5°
Maximum altitude 00:07:49 58° 311° (NW) 984 2.5 -17.2°
Drops below altitude 10° 00:13:24 10° 30° (NNE) 2,469 5.9 -16.7°
Sets 00:15:55 0° 35° (NE) 3,408 7.1 -16.4°
